This demonstration page uses our WeatherBlox Daily Observations layout. Learn more.

Left ArrowRight Arrow

38.89511, -77.03637

Hourly Observations for January 29, 2019

Temp ( °F °C ) Dew Point ( °F °C ) Humidity (%) Winds ( mph kmh ) Pressure ( in mb ) Visibility ( mi km ) Precip ( " mm )
12:52 am 00:52 Mostly Cloudy 31 -0.6 17 -8.3 56 56 SSE 6 9 30.01 1016 10 16 0.00 0.00
1:52 am 01:52 Cloudy 32 0 21 -6.1 64 64 SSE 7 11 30.00 1016 10 16 0.00 0.00
2:52 am 02:52 Mostly Cloudy 31 -0.6 22 -5.6 69 69 SSE 7 11 29.98 1015 10 16 0.00 0.00
3:52 am 03:52 Cloudy 32 0 24 -4.4 73 73 S 6 9 29.96 1015 10 16 0.00 0.00
4:52 am 04:52 Cloudy 33 0.6 25 -3.9 72 72 SSE 7 11 29.96 1014 10 16 0.00 0.00
5:52 am 05:52 Cloudy 34 1.1 26 -3.3 73 73 SSE 9 15 29.93 1014 10 16 0.00 0.00
6:52 am 06:52 Cloudy 35 1.7 27 -2.8 72 72 S 10 17 29.93 1014 10 16 0.00 0.00
7:52 am 07:52 Cloudy 35 1.7 28 -2.2 76 76 SSE 9 15 29.92 1013 10 16 0.00 0.00
8:52 am 08:52 Cloudy 37 2.8 28 -2.2 70 70 S 10 17 29.91 1013 10 16 0.00 0.00
9:52 am 09:52 Cloudy 38 3.3 28 -2.2 68 68 S 10 17 29.90 1012 10 16 0.00 0.00
10:45 am 10:45 Cloudy 39 3.9 29 -1.7 67 67 S 10 17 29.90 1013 10 16 0.00 0.00
10:52 am 10:52 Cloudy 39 3.9 30 -1.1 70 70 S 10 17 29.89 1012 10 16 0.00 0.00
11:01 am 11:01 Cloudy 39 3.9 30 -1.1 70 70 S 9 15 29.89 1012 10 16 0.00 0.00
11:52 am 11:52 Cloudy 40 4.4 31 -0.6 70 70 S 10 17 29.85 1011 10 16 0.00 0.00
12:52 pm 12:52 Cloudy with Light Rain 41 5 32 0 70 70 S 8 13 29.81 1010 10 16 0.00 0.03
1:52 pm 13:52 Cloudy 39 3.9 34 1.1 82 82 S 3 6 29.79 1009 7 11 0.02 0.51
1:59 pm 13:59 Cloudy 39 3.9 34 1.1 82 82 S 5 7 29.79 1009 8 13 0.01 0.25
2:07 pm 14:07 Cloudy with Light Rain 39 3.9 34 1.1 82 82 S 3 6 29.79 1009 7 11 0.01 0.25
2:34 pm 14:34 Cloudy with Light Rain 39 3.9 34 1.1 82 82 SSW 6 9 29.79 1009 9 14 0.03 0.76
2:43 pm 14:43 Cloudy with Light Rain/Snow 39 3.9 34 1.1 82 82 SSW 5 7 29.79 1009 6 10 0.03 0.76
2:52 pm 14:52 Cloudy with Light Rain/Snow 38 3.3 33 0.6 83 83 SW 5 7 29.79 1009 5 8 0.05 1.27
3:21 pm 15:21 Cloudy with Light Rain/Snow 37 2.8 33 0.6 86 86 NNW 9 15 29.82 1010 3 4 0.02 0.51
3:30 pm 15:30 Cloudy with Light Rain/Snow 37 2.8 33 0.6 86 86 NW 9 15 29.84 1011 3 5 0.04 1.02
3:37 pm 15:37 Cloudy with Light Rain/Snow 36 2.2 32 0 86 86 NW 10 17 29.84 1011 3 4 0.04 1.02
3:52 pm 15:52 Cloudy with Light Wintry Mix 36 2.2 32 0 86 86 NW 12 19 29.84 1011 3 4 0.06 1.52
4:05 pm 16:05 Cloudy with Light Snow 35 1.7 32 0 89 89 NNW 9 15 29.84 1011 2 3 0.02 0.51
4:13 pm 16:13 Cloudy with Light Snow 35 1.7 32 0 89 89 NNW 7 11 29.84 1011 2 2 0.04 1.02
4:18 pm 16:18 Cloudy with Light Snow 35 1.7 32 0 89 89 NNW 6 9 29.84 1011 2 3 0.04 1.02
4:31 pm 16:31 Cloudy with Light Snow 35 1.7 32 0 89 89 N 5 7 29.85 1011 3 5 0.05 1.27
4:40 pm 16:40 Cloudy with Light Rain/Snow 35 1.7 32 0 89 89 N 6 9 29.85 1011 5 8 0.05 1.27
4:52 pm 16:52 Cloudy with Light Rain/Snow 35 1.7 32 0 89 89 NNW 6 9 29.85 1011 6 10 0.05 1.27
4:59 pm 16:59 Cloudy with Light Rain/Snow 35 1.7 32 0 89 89 N 6 9 29.86 1011 6 10 0.00 0.03
5:52 pm 17:52 Cloudy with Light Rain/Snow 35 1.7 32 0 89 89 N 7 11 29.85 1011 5 8 0.01 0.25
5:56 pm 17:56 Cloudy with Light Snow 35 1.7 32 0 89 89 N 7 11 29.86 1011 5 8 0.00 0.03
6:04 pm 18:04 Cloudy with Light Snow 34 1.1 31 -0.6 89 89 N 8 13 29.85 1011 4 6 0.00 0.03
6:21 pm 18:21 Cloudy with Light Snow 34 1.1 32 0 92 92 N 6 9 29.84 1011 5 8 0.01 0.25
6:52 pm 18:52 Cloudy 36 2.2 32 0 86 86 NW 8 13 29.85 1011 9 14 0.01 0.25
7:52 pm 19:52 Cloudy 35 1.7 31 -0.6 85 85 NNW 12 19 29.87 1012 10 16 0.00 0.00
8:52 pm 20:52 Cloudy 34 1.1 26 -3.3 73 73 NW 16 26 29.91 1013 10 16 0.00 0.00
9:52 pm 21:52 Mostly Cloudy 31 -0.6 21 -6.1 67 67 NW 17 28 29.94 1014 10 16 0.00 0.00
10:52 pm 22:52 Mostly Clear 29 -1.7 15 -9.4 56 56 NNW 17 28 29.98 1015 10 16 0.00 0.00
11:52 pm 23:52 Mostly Clear 28 -2.2 11 -11.7 49 49 NNW 12 19 30.00 1016 10 16 0.00 0.00

Powered by AerisWeather